Location: Cornospital
(48.0620°N, 3.3837°W)
Time: 19:50:10
(UTC+00:00)

Cosmos 1975 Rocket - Pass Details

Date: 17 June 2021
Orbit: 603 x 634 km, 82.5° (Epoch: 02 August)

Event Time Altitude Azimuth Distance (km) Brightness Sun altitude
Exits shadow 21:34:49 - 191° (SSW) 2,591 5.9 -10.1°
Reaches altitude 10° 21:36:21 10° 192° (SSW) 1,963 5.2 -10.2°
Maximum altitude 21:40:42 79° 279° (W) 633 3.2 -10.6°
Drops below altitude 10° 21:45:08 10° 7° (N) 1,998 6.4 -11.1°
Sets 21:47:23 0° 9° (N) 2,914 7.3 -11.3°
